FFLY03 (65319 NORAD) Tracking and Keplerian Element Data

This shows tracking and keplerian element data for the satellite.

Feedback or suggestion? Click here.




ElementValue
Catalog65319
NameFFLY03
Epoch Orbit1721
Epoch Day354.22555968
Epoch Year2025
RAAN67.3079
Inclination97.7523
Eccentricity0.0007237
Argument of Perigee355.3989
Mean Anonmoly4.7162
Mean Motion14.9267785
Decay Rate5.45E-06
L11 65319U 25188E 25354.22555968 .00000545 00000+0 58314-4 0 9997
L22 65319 97.7523 67.3079 0007237 355.3989 4.7162 14.92677850 17212



Live tracking and technical data element details for FFLY03 (NORAD 65319). FFLY03 can be tracked NOW for your location showing map with azimuth and elevation plus other details from your city location.







IsCatalogInMostPopularTable: catalog: 65319, numindb: 6
Update: records affected: 1



GetName: 65319 FFLY03

Hit Count: updated at: Mon, 20 Apr 2026 09:07:27 GMT